Regional Weather Roundup
Issued by NWS

Home | Current Version | Previous Version | Graphics & Text | Print | Product List | Glossary On
Versions: 1 2 3 4 5 6 7 8 9 10 11 12 13 14 15 16 17 18 19 20 21 22 23 24 25 26 27
000
ASUS45 KGTF 241810
RWRMT
MONTANA HOURLY WEATHER ROUNDUP
NATIONAL WEATHER SERVICE GREAT FALLS MT
1200 PM MDT FRI APR 24 2015

NOTE: "FAIR" INDICATES FEW OR NO CLOUDS BELOW 12000 FEET WITH NO
SIGNIFICANT WEATHER AND/OR OBSTRUCTIONS TO VISIBILITY.

MTZ001>007-043-241900-
WEST OF THE DIVIDE

CITY           SKY/WX    TMP DP  RH WIND       PRES   REMARKS
KALISPELL      CLOUDY    50  33  52 S10       29.70S
MISSOULA       LGT RAIN  49  35  58 SW7       29.73S
BUTTE          RAIN      38  35  89 W9        29.69S FOG     WCI  31
DEER LODGE       N/A     43  37  81 NE5       29.73F
EUREKA           N/A     50  28  43 S13       29.71R
HAMILTON         N/A     45  36  70 N5        29.72S
LIBBY            N/A     50  23  34 S8        29.75R
$$

MTZ008-052>055-241900-
SOUTHWEST MONTANA

CITY           SKY/WX    TMP DP  RH WIND       PRES   REMARKS
BOZEMAN        PTSUNNY   57  37  47 NE7       29.63F
DILLON         CLOUDY    54  28  36 NE9       29.61F
$$

MTZ009-010-012-014-046-048-049-054-241900-
EAST SLOPES AND CENTRAL MONTANA

CITY           SKY/WX    TMP DP  RH WIND       PRES   REMARKS
CUT BANK       CLOUDY    50  27  40 W17G23    29.65S
GREAT FALLS    LGT RAIN  51  37  58 VRB6      29.65S
MALMSTROM AFB  LGT RAIN  49  38  66 SW5       29.66S
HELENA         CLOUDY    48  38  68 W7        29.69S
$$

MTZ011-013-016-021-045-047-050-051-241900-
NORTH CENTRAL MONTANA

CITY           SKY/WX    TMP DP  RH WIND       PRES   REMARKS
HAVRE          CLOUDY    58  32  37 W10       29.63F
LEWISTOWN      CLOUDY    54  34  46 NW6       29.64F
CHINOOK          N/A     57  32  38 NW9       29.63F
FORT BENTON      N/A     54  34  47 NW5       29.67S
$$

MTZ017>020-022>042-056>058-061-062-241900-
EASTERN PLAINS

CITY           SKY/WX    TMP DP  RH WIND       PRES   REMARKS
BAKER          SUNNY     67  32  27 E12       29.62F
BILLINGS       PTSUNNY   63  37  38 CALM      29.61F
GLASGOW        MOSUNNY   59  36  42 S7        29.60S
JORDAN           N/A     66  39  37 VRB3      29.58F
LIVINGSTON     PTSUNNY   61  29  29 W12       29.61S
MILES CITY     SUNNY     69  38  32 VRB7      29.58F
SIDNEY         SUNNY     63  32  31 CALM      29.64F
WOLF POINT     CLOUDY    60  36  40 E9        29.61F
FORSYTH          N/A     64  45  48 W3        29.57F
PLENTYWOOD       N/A     55  28  35 E12       29.64F
POPLAR           N/A     63  34  34 E9        29.62F
$$

REGIONAL REPORTS...DAKOTAS

CITY           SKY/WX    TMP DP  RH WIND       PRES   REMARKS
WILLISTON      SUNNY     59  31  34 E10       29.65F
MINOT          SUNNY     54  31  41 NE9       29.68F
DICKINSON      SUNNY     60  34  37 NE8       29.62F
BEACH          FAIR      64  28  25 E8        29.63F
CROSBY         FAIR      57  28  33 E9G16     29.67R
WATFORD CITY   FAIR      57  32  38 NE6       29.63F
BISMARCK       SUNNY     60  36  40 NE8       29.65F
GRAND FORKS    CLOUDY    51  37  58 SE16G23   29.77S
FARGO          CLOUDY    52  40  63 SE21G28   29.72F
BUFFALO SD       N/A     65  32  29 NE12      29.56F
RAPID CITY     SUNNY     65  41  41 NE13      29.60F
$$

REGIONAL REPORTS...WYOMING/IDAHO/WASHINGTON

CITY           SKY/WX    TMP DP  RH WIND       PRES   REMARKS
GILLETTE       MOSUNNY   63  39  41 E7        29.62F
SHERIDAN       MOSUNNY   65  41  41 NE6       29.60F
BUFFALO WY     PTSUNNY   62  34  35 N7        29.64F
CODY           SUNNY     61  27  27 SW5       29.62F
YELLOWSTONE LA   N/A     46  24  42 VRB5      29.76F
IDAHO FALLS    MOSUNNY   60  37  42 SW18G24   29.68F
SALMON         CLOUDY    43  39  87 N13       29.68R
BOISE          CLOUDY    50  40  68 NW6       29.76R
SPOKANE        PTSUNNY   46  33  60 S16G22    29.79R
$$

REGIONAL REPORTS...ALBERTA

CITY           SKY/WX    TMP DP  RH WIND       PRES   REMARKS
EDMONTON       CLOUDY    41  34  75 E14       29.72S
CALGARY        CLOUDY    46  30  53 NE12      29.64S
LETHBRIDGE     PTSUNNY   46  32  57 W6        29.65S
MEDICINE HAT   PTSUNNY   52  34  50 W14       29.61S
$$

REGIONAL REPORTS...SASKATCHEWAN

CITY           SKY/WX    TMP DP  RH WIND       PRES   REMARKS
SWIFT CURRENT  CLOUDY    55  36  47 SE13      29.60R
REGINA         PTSUNNY   54  30  40 E7        29.68S
SASKATOON      PTSUNNY   52  36  54 CALM      29.70S
$$



USA.gov is the U.S. government's official web portal to all federal, state and local government web resources and services.